Tracking 19638 objects as of 20-May-2019
HD Live streaming from Space Station
objects crossing your sky now

DIAPASON (D1-A)

Track DIAPASON (D1-A) now!
10-day predictions
DIAPASON (D1-A) is classified as:


NORAD ID: 2016
Int'l Code: 1966-013A
Perigee: 504.2 km
Apogee: 2,358.0 km
Inclination: 34.1 °
Period: 114.3 minutes
Semi major axis: 7802 km
RCS: 1.2804 m2 (large)
Launch date: February 17, 1966
Source: France (FR)
Launch site: HAMMA GUIRA SPACE TRACK RANGE (HGSTR)
aabbcc
Your satellite tracking list
Your tracking list is empty




NASA's NSSDC Master Catalog

Two Line Element Set (TLE):
1  2016U 66013A   19140.20366723  .00000022  00000-0 -65395-6 0  9998
2  2016  34.1005  60.3404 1188031 269.0610  77.4014 12.59746524413395
Source of the keplerian elements: AFSPC